| time (UTC) | temp C | wind direction | speed KPH | gust KPH | rain 1hr cm | rain 24hr cm | rain mn cm | humidity % | barometer mb |
| 20260831131556 | 23 | 194 | 0.0 | 0.0 | 0.00 | 0.00 | 0.00 | 93 | 1019.6 |
| 20260831130054 | 22 | 194 | 0.0 | 0.0 | 0.00 | 0.00 | 0.00 | 94 | 1019.7 |
| 20260831124550 | 22 | 194 | 0.0 | 0.0 | 0.00 | 0.00 | 0.00 | 95 | 1019.6 |
| 20260831123043 | 22 | 194 | 0.0 | 0.0 | 0.00 | 0.00 | 0.00 | 95 | 1019.6 |
| 20260831121541 | 21 | 194 | 0.0 | 0.0 | 0.00 | 0.00 | 0.00 | 95 | 1019.5 |
| 20260831120052 | 21 | 194 | 0.0 | 0.0 | 0.00 | 0.00 | 0.00 | 95 | 1019.5 |
| 20260831114539 | 21 | 194 | 0.0 | 0.0 | 0.00 | 0.00 | 0.00 | 95 | 1019.4 |
| 20260831113038 | 20 | 194 | 0.0 | 0.0 | 0.00 | 0.00 | 0.00 | 95 | 1019.1 |
| 20260831111537 | 20 | 194 | 0.0 | 0.0 | 0.00 | 0.00 | 0.00 | 95 | 1019.1 |
| 20260831110034 | 20 | 194 | 0.0 | 0.0 | 0.00 | 0.00 | 0.00 | 94 | 1018.8 |
| 20260831104533 | 21 | 194 | 0.0 | 0.0 | 0.00 | 0.00 | 0.00 | 95 | 1018.7 |
| 20260831103032 | 21 | 194 | 0.0 | 0.0 | 0.00 | 0.00 | 0.00 | 94 | 1018.7 |
| 20260831101532 | 21 | 194 | 0.0 | 0.0 | 0.00 | 0.00 | 0.00 | 94 | 1018.7 |
| 20260831100031 | 21 | 194 | 0.0 | 0.0 | 0.00 | 0.00 | 0.00 | 94 | 1018.6 |
| 20260831094531 | 21 | 194 | 0.0 | 0.0 | 0.00 | 0.00 | 0.00 | 94 | 1018.4 |
| 20260831093028 | 21 | 194 | 0.0 | 0.0 | 0.00 | 0.00 | 0.00 | 94 | 1018.4 |
| 20260831091528 | 21 | 194 | 0.0 | 0.0 | 0.00 | 0.00 | 0.00 | 94 | 1018.5 |
| 20260831090030 | 21 | 194 | 0.0 | 0.0 | 0.00 | 0.00 | 0.00 | 94 | 1018.5 |
| 20260831084532 | 21 | 194 | 0.0 | 0.0 | 0.00 | 0.00 | 0.00 | 94 | 1018.5 |
| 20260831083027 | 21 | 194 | 0.0 | 0.0 | 0.00 | 0.00 | 0.00 | 93 | 1018.6 |
| 20260831081526 | 21 | 194 | 0.0 | 0.0 | 0.00 | 0.00 | 0.00 | 93 | 1018.4 |
| 20260831080033 | 21 | 194 | 0.0 | 0.0 | 0.00 | 0.00 | 0.00 | 93 | 1018.4 |
| 20260831074524 | 21 | 194 | 0.0 | 0.0 | 0.00 | 0.00 | 0.00 | 93 | 1018.5 |
| 20260831073023 | 21 | 194 | 0.0 | 0.0 | 0.00 | 0.00 | 0.00 | 92 | 1018.4 |
| 20260831071522 | 22 | 194 | 0.0 | 0.0 | 0.00 | 0.00 | 0.00 | 92 | 1018.4 |
| 20260831070020 | 22 | 194 | 0.0 | 0.0 | 0.00 | 0.00 | 0.00 | 92 | 1018.5 |
| 20260831064519 | 22 | 194 | 0.0 | 0.0 | 0.00 | 0.00 | 0.00 | 92 | 1018.7 |
| 20260831063016 | 22 | 194 | 0.0 | 0.0 | 0.00 | 0.00 | 0.00 | 92 | 1018.7 |
| 20260831061516 | 22 | 194 | 0.0 | 0.0 | 0.00 | 0.00 | 0.00 | 92 | 1018.7 |
| 20260831060015 | 22 | 194 | 0.0 | 0.0 | 0.00 | 0.00 | 0.00 | 92 | 1018.8 |
| 20260831054515 | 22 | 194 | 0.0 | 0.0 | 0.00 | 0.00 | 0.00 | 92 | 1019.0 |
| 20260831053024 | 22 | 194 | 0.0 | 0.0 | 0.00 | 0.00 | 0.00 | 92 | 1019.1 |
| 20260831051515 | 22 | 194 | 0.0 | 0.0 | 0.00 | 0.00 | 0.00 | 91 | 1019.1 |
| 20260831050025 | 23 | 194 | 0.0 | 0.0 | 0.00 | 0.00 | 0.00 | 91 | 1019.2 |
| 20260831044515 | 23 | 194 | 0.0 | 0.0 | 0.00 | 0.00 | 0.00 | 90 | 1019.3 |
| 20260831043013 | 23 | 194 | 0.0 | 0.0 | 0.00 | 0.00 | 0.00 | 89 | 1019.3 |
| 20260831041514 | 23 | 194 | 0.0 | 0.0 | 0.00 | 0.00 | 0.00 | 89 | 1019.4 |
| 20260831040015 | 24 | 194 | 0.0 | 0.0 | 0.00 | 0.00 | 0.00 | 89 | 1019.4 |
| 20260831034515 | 24 | 194 | 0.0 | 0.0 | 0.00 | 0.00 | 0.00 | 88 | 1019.4 |
| 20260831033014 | 24 | 194 | 0.0 | 0.0 | 0.00 | 0.00 | 0.00 | 88 | 1019.5 |
| 20260831031513 | 24 | 194 | 0.0 | 0.0 | 0.00 | 0.00 | 0.00 | 87 | 1019.6 |
| 20260831030013 | 24 | 194 | 0.0 | 0.0 | 0.00 | 0.00 | 0.00 | 87 | 1019.6 |
| 20260831024515 | 24 | 194 | 0.0 | 0.0 | 0.00 | 0.00 | 0.00 | 87 | 1019.7 |
| 20260831023012 | 24 | 194 | 0.0 | 0.0 | 0.00 | 0.00 | 0.00 | 88 | 1019.7 |
| 20260831021523 | 24 | 194 | 0.0 | 0.0 | 0.00 | 0.00 | 0.00 | 88 | 1019.6 |
| 20260831020016 | 25 | 194 | 0.0 | 0.0 | 0.00 | 0.00 | 0.00 | 88 | 1019.6 |
| 20260831014523 | 25 | 194 | 0.0 | 0.0 | 0.00 | 0.00 | 0.00 | 87 | 1019.7 |
| 20260831013012 | 25 | 194 | 0.0 | 0.0 | 0.00 | 0.00 | 0.00 | 87 | 1019.7 |
| 20260831011514 | 25 | 194 | 0.0 | 0.0 | 0.00 | 0.00 | 0.00 | 87 | 1019.6 |
| 20260831010012 | 25 | 193 | 0.0 | 0.0 | 0.00 | 0.00 | 0.00 | 85 | 1019.6 |
| 20260831004511 | 25 | 194 | 0.0 | 0.0 | 0.00 | 0.00 | 0.00 | 84 | 1019.4 |
| 20260831003010 | 25 | 194 | 0.0 | 0.0 | 0.00 | 0.00 | 0.00 | 83 | 1019.1 |
| 20260831001510 | 26 | 194 | 0.0 | 0.0 | 0.00 | 0.00 | 0.00 | 81 | 1018.9 |
| 20260831000009 | 26 | 193 | 0.0 | 0.0 | 0.00 | 0.00 | 0.00 | 80 | 1018.9 |
| 20260830234510 | 27 | 194 | 0.0 | 0.0 | 0.00 | 0.00 | 0.00 | 78 | 1018.9 |
| 20260830233009 | 27 | 194 | 0.0 | 0.0 | 0.00 | 0.00 | 0.00 | 76 | 1018.9 |
| 20260830231511 | 28 | 194 | 0.0 | 0.0 | 0.00 | 0.00 | 0.00 | 73 | 1019.0 |
| 20260830230010 | 28 | 194 | 0.0 | 0.0 | 0.00 | 0.00 | 0.00 | 71 | 1019.0 |
| 20260830224510 | 28 | 194 | 0.0 | 0.0 | 0.00 | 0.00 | 0.00 | 70 | 1018.8 |
| 20260830223010 | 28 | 194 | 0.0 | 0.0 | 0.00 | 0.00 | 0.00 | 70 | 1018.8 |
| 20260830221509 | 28 | 194 | 0.0 | 4.8 | 0.00 | 0.00 | 0.00 | 67 | 1018.9 |
| 20260830220009 | 29 | 194 | 0.0 | 0.0 | 0.00 | 0.00 | 0.00 | 67 | 1019.0 |
| 20260830214508 | 29 | 194 | 0.0 | 0.0 | 0.00 | 0.00 | 0.00 | 66 | 1018.9 |
| 20260830213014 | 30 | 196 | 0.0 | 1.6 | 0.00 | 0.00 | 0.00 | 63 | 1018.9 |
| 20260830211509 | 30 | 196 | 0.0 | 4.8 | 0.00 | 0.00 | 0.00 | 63 | 1018.8 |
| 20260830210009 | 30 | 139 | 0.0 | 1.6 | 0.00 | 0.00 | 0.00 | 61 | 1018.7 |
| 20260830204506 | 31 | 126 | 0.0 | 6.4 | 0.00 | 0.00 | 0.00 | 62 | 1018.7 |
| 20260830203005 | 31 | 238 | 0.0 | 1.6 | 0.00 | 0.00 | 0.00 | 59 | 1019.0 |
| 20260830201504 | 32 | 234 | 0.0 | 8.0 | 0.00 | 0.00 | 0.00 | 57 | 1019.1 |
| 20260830200005 | 32 | 168 | 0.0 | 4.8 | 0.00 | 0.00 | 0.00 | 56 | 1019.3 |
| 20260830194600 | 32 | 188 | 0.0 | 6.4 | 0.00 | 0.00 | 0.00 | 57 | 1019.5 |
| 20260830193056 | 32 | 184 | 0.0 | 0.0 | 0.00 | 0.00 | 0.00 | 58 | 1019.8 |
| 20260830191555 | 32 | 273 | 0.0 | 6.4 | 0.00 | 0.00 | 0.00 | 58 | 1020.0 |
| 20260830190124 | 32 | 122 | 0.0 | 8.0 | 0.00 | 0.00 | 0.00 | 59 | 1020.4 |
| 20260830184607 | 32 | 205 | 0.0 | 4.8 | 0.00 | 0.00 | 0.00 | 58 | 1020.5 |
| 20260830183059 | 31 | 241 | 0.0 | 1.6 | 0.00 | 0.00 | 0.00 | 61 | 1020.8 |
| 20260830181550 | 31 | 159 | 0.0 | 0.0 | 0.00 | 0.00 | 0.00 | 60 | 1021.1 |
| 20260830180047 | 31 | 104 | 0.0 | 4.8 | 0.00 | 0.00 | 0.00 | 61 | 1021.3 |
| 20260830174557 | 32 | 199 | 0.0 | 0.0 | 0.00 | 0.00 | 0.00 | 59 | 1021.4 |
| 20260830173039 | 31 | 199 | 0.0 | 1.6 | 0.00 | 0.00 | 0.00 | 63 | 1021.6 |
| 20260830171536 | 31 | 173 | 0.0 | 3.2 | 0.00 | 0.00 | 0.00 | 62 | 1021.8 |
| 20260830170033 | 30 | 254 | 0.0 | 1.6 | 0.00 | 0.00 | 0.00 | 64 | 1021.8 |
| 20260830164531 | 30 | 294 | 0.0 | 1.6 | 0.00 | 0.00 | 0.00 | 65 | 1022.1 |
| 20260830163032 | 30 | 294 | 0.0 | 1.6 | 0.00 | 0.00 | 0.00 | 64 | 1022.2 |
| 20260830161527 | 29 | 182 | 0.0 | 3.2 | 0.00 | 0.00 | 0.00 | 67 | 1022.4 |
| 20260830160030 | 30 | 106 | 0.0 | 1.6 | 0.00 | 0.00 | 0.00 | 68 | 1022.6 |
| 20260830154519 | 28 | 169 | 0.0 | 6.4 | 0.00 | 0.00 | 0.00 | 71 | 1022.6 |
| 20260830153015 | 28 | 172 | 0.0 | 4.8 | 0.00 | 0.00 | 0.00 | 73 | 1022.7 |
| 20260830151513 | 27 | 168 | 0.0 | 8.0 | 0.00 | 0.00 | 0.00 | 77 | 1022.8 |
| 20260830150012 | 27 | 122 | 0.0 | 4.8 | 0.00 | 0.00 | 0.00 | 76 | 1022.8 |
| 20260830144506 | 25 | 146 | 0.0 | 6.4 | 0.00 | 0.00 | 0.00 | 83 | 1022.7 |
| 20260830143002 | 25 | 144 | 0.0 | 3.2 | 0.00 | 0.00 | 0.00 | 86 | 1022.8 |
| 20260830141608 | 23 | 144 | 0.0 | 1.6 | 0.00 | 0.00 | 0.00 | 90 | 1022.8 |
| 20260830140058 | 23 | 198 | 0.0 | 1.6 | 0.00 | 0.00 | 0.00 | 92 | 1022.8 |
| 20260830134553 | 22 | 197 | 0.0 | 3.2 | 0.00 | 0.00 | 0.00 | 95 | 1023.1 |
| 20260830133054 | 22 | 41 | 0.0 | 3.2 | 0.00 | 0.00 | 0.00 | 96 | 1023.5 |